This demonstration page uses our WeatherBlox Daily Observations layout. Learn more.

Left ArrowRight Arrow

30.21309, -93.2044

Hourly Observations for July 14, 2019

Temp ( °F °C ) Dew Point ( °F °C ) Humidity (%) Winds ( mph kmh ) Pressure ( in mb ) Visibility ( mi km ) Precip ( " mm )
12:15 am 00:15 Cloudy with Light Rain 75 23.8 74 23.5 98 98 SSW 8 13 29.72 1006 7 11 0.00 0.00
12:35 am 00:35 Cloudy with Heavy Rain 75 23.7 74 23.5 99 99 SSW 8 13 29.72 1006 10 16 0.00 0.00
12:55 am 00:55 Cloudy with Heavy Rain 75 23.9 74 23.5 98 98 SW 8 13 29.73 1007 10 16 0.00 0.00
1:15 am 01:15 Cloudy with Rain 75 23.8 74 23.5 98 98 SSW 8 13 29.73 1007 10 16 0.00 0.00
1:35 am 01:35 Cloudy with Heavy Rain 75 23.8 74 23.5 98 98 SSE 7 11 29.73 1007 10 16 0.00 0.00
1:55 am 01:55 Cloudy with Rain 75 24 74 23.5 97 97 SSW 7 11 29.73 1007 5 8 0.00 0.00
2:15 am 02:15 Cloudy with Heavy Rain 75 24 74 23.5 97 97 S 6 9 29.73 1007 7 11 0.00 0.00
2:35 am 02:35 Cloudy with Heavy Rain 75 24 74 23.5 97 97 SE 6 9 29.74 1007 10 16 0.00 0.00
2:55 am 02:55 Cloudy with Light Rain 75 24 74 23.5 97 97 S 6 9 29.74 1007 10 16 0.00 0.00
3:15 am 03:15 Cloudy with Light Rain 75 24 74 23.5 97 97 S 7 11 29.75 1007 7 11 0.00 0.00
3:35 am 03:35 Cloudy with Rain 75 24 74 23.5 97 97 S 5 7 29.76 1008 3 5 0.01 0.25
3:55 am 03:55 Cloudy with Light Rain 75 23.8 74 23.5 98 98 S 8 13 29.76 1008 7 11 0.01 0.25
4:15 am 04:15 Cloudy with Light Rain 75 24 74 23.6 98 98 S 7 11 29.77 1008 5 8 0.01 0.25
4:35 am 04:35 Cloudy with Light Rain 75 24 74 23.6 98 98 S 5 7 29.77 1008 3 5 0.02 0.51
4:55 am 04:55 Cloudy with Rain 75 24 74 23.5 97 97 SW 13 20 29.77 1008 7 11 0.02 0.51
5:15 am 05:15 Cloudy with Heavy Rain 75 23.7 74 23.2 97 97 SW 10 17 29.77 1008 7 11 0.00 0.00
5:35 am 05:35 Cloudy with Heavy Rain 75 23.7 74 23.2 97 97 SW 12 19 29.78 1008 10 16 0.00 0.00
6:00 am 06:00 Cloudy with Light Rain 75 24 73 23 94 94 WSW 13 20 29.79 1009 7 11 0.00 0.00
6:45 am 06:45 Mostly Cloudy 75 24 73 23 94 94 SW 6 9 29.81 1009 10 16 0.00 0.00
7:45 am 07:45 Mostly Cloudy 77 25 73 23 89 89 WSW 8 13 29.83 1010 10 16 0.00 0.00
8:45 am 08:45 Mostly Cloudy 79 26 73 23 84 84 SW 10 17 29.85 1011 10 16 0.00 0.00
9:45 am 09:45 Mostly Cloudy 81 27 75 24 84 84 SW 9 15 29.86 1011 7 11 0.00 0.00
10:20 am 10:20 Cloudy with Light Rain 77 25 75 24 94 94 SW 9 15 29.87 1011 2 3 0.00 0.00
10:45 am 10:45 Cloudy with Light Rain 75 24 75 24 100 100 SSW 10 17 29.86 1011 5 8 0.00 0.00
11:45 am 11:45 Cloudy with Light Rain 75 24 75 24 100 100 SSW 22 35 29.86 1011 5 8 0.00 0.00
12:45 pm 12:45 Cloudy with Light Rain 77 25 75 24 94 94 SSW 22 35 29.87 1011 5 8 0.00 0.00
1:50 pm 13:50 Cloudy with Light Rain 79 26 75 24 89 89 SSW 17 28 29.86 1011 5 8 0.00 0.00
2:55 pm 14:55 Cloudy with Light Rain 81 27 75 24 84 84 S 14 22 29.86 1011 7 11 0.00 0.00
3:55 pm 15:55 Cloudy with Light Rain 82 28 75 24 79 79 SSW 24 39 29.84 1010 7 11 0.00 0.00
4:50 pm 16:50 Cloudy with Light Rain 81 27 75 24 84 84 SSW 13 20 29.85 1011 10 16 0.00 0.00
5:50 pm 17:50 Cloudy with Light Rain 77 25 77 25 100 100 SSW 12 19 29.85 1011 10 16 0.00 0.00
6:50 pm 18:50 Cloudy with Heavy Rain 77 25 75 24 94 94 SSW 18 30 29.87 1011 10 16 0.00 0.00
7:50 pm 19:50 Cloudy with Light Rain 77 25 77 25 100 100 SSW 7 11 29.86 1011 3 5 0.00 0.00
8:50 pm 20:50 Cloudy with Light Rain 79 26 77 25 94 94 S 8 13 29.86 1011 10 16 0.00 0.00
9:50 pm 21:50 Cloudy with Light Rain 79 26 77 25 94 94 S 7 11 29.88 1012 10 16 0.00 0.00
10:15 pm 22:15 Cloudy with Nearby Thunderstorms 79 26.2 77 25.2 94 94 S 6 9 29.89 1012 7 11 0.00 0.00
10:35 pm 22:35 Cloudy with Nearby Thunderstorms 80 26.5 77 25.2 93 93 SSE 7 11 29.89 1012 10 16 0.00 0.00
10:55 pm 22:55 Cloudy with Thunderstorms 80 26.6 77 25.1 92 92 SW 8 13 29.90 1013 10 16 0.00 0.00
11:15 pm 23:15 Cloudy with Thunderstorms 80 26.5 78 25.3 93 93 SSW 6 9 29.90 1013 7 11 0.00 0.00
11:35 pm 23:35 Cloudy with Thunderstorms 77 24.8 75 24 95 95 SE 7 11 29.88 1012 10 16 0.00 0.00
11:55 pm 23:55 Cloudy with Thunderstorms 79 26.3 76 24.5 90 90 N 3 6 29.88 1012 10 16 0.00 0.00

Powered by AerisWeather